Weather reports worldwide

Advertisment
Hawarden, United Kingdom (3321): temperature & dewpoint: 07.12.2017 13:00:00 - 13.12.2017 13:00:00 (GMT)Hawarden, United Kingdom (3321): temperature -20cm & temperature -100cm: 07.12.2017 13:00:00 - 13.12.2017 13:00:00 (GMT)Hawarden, United Kingdom (3321): wind speed & gusts: 07.12.2017 13:00:00 - 13.12.2017 13:00:00 (GMT)Hawarden, United Kingdom (3321): wind direction: 07.12.2017 13:00:00 - 13.12.2017 13:00:00 (GMT)Hawarden, United Kingdom (3321): reduced air pressure: 07.12.2017 13:00:00 - 13.12.2017 13:00:00 (GMT)Hawarden, United Kingdom (3321): visibility: 07.12.2017 13:00:00 - 13.12.2017 13:00:00 (GMT)Hawarden, United Kingdom (3321): sunshine duration: 07.12.2017 13:00:00 - 13.12.2017 13:00:00 (GMT)Hawarden, United Kingdom (3321): precipitation: 07.12.2017 13:00:00 - 13.12.2017 13:00:00 (GMT)
Date & Time tt [°C] td [°C] tt -20cm [°C] tt -100cm [°C] ff [km/h] ff [kn] fx [km/h] fx [kn] dd ppp [hPa] vv [km] sd [min] rr [mm]
13.12.2017 13:00:00 7,0 5,0 - - 21 11 - - WNW - 9 - 1,0
13.12.2017 12:00:00 5,9 5,1 - - 16 9 - - SSW 990,3 10 0 1,6
13.12.2017 11:00:00 6,1 4,4 - - 22 12 - - S 991,7 10 0 0,0
13.12.2017 10:00:00 6,0 4,0 - - 21 11 - - S 993,0 10 0 0,0
13.12.2017 09:00:00 5,5 3,8 4,7 8,4 22 12 - - SSW 994,5 10 0 0,0
13.12.2017 08:00:00 5,5 3,3 - - 24 13 - - SSW 995,8 10 0 0,0
13.12.2017 07:00:00 5,8 3,4 - - 21 11 - - SW 996,7 10 0 0,0
13.12.2017 06:00:00 5,5 3,4 - - 15 8 - - SW 997,4 18 0 0,0
13.12.2017 05:00:00 5,5 3,5 - - 11 6 - - WSW 998,6 17 0 0,0
13.12.2017 04:00:00 4,5 3,2 - - 9 5 - - WSW 999,2 19 0 0,2
13.12.2017 03:00:00 4,2 3,4 - - 8 4 - - WSW 999,5 18 0 0,0
13.12.2017 02:00:00 1,5 1,2 - - 5 3 - - S 999,8 15 0 0,0
13.12.2017 01:00:00 1,3 1,1 - - 8 4 - - S 1000,5 9 0 0,0
13.12.2017 00:00:00 1,7 1,4 - - 5 3 - - SE 1000,6 9 - 0,0
12.12.2017 23:00:00 2,1 1,9 - - 9 5 - - SSE 1000,5 10 0 0,0
12.12.2017 22:00:00 2,6 2,3 - - 18 10 - - S 1000,8 6 0 0,0
12.12.2017 21:00:00 2,2 1,3 - - 22 12 - - SSE 1001,1 10 0 0,0
12.12.2017 20:00:00 1,6 0,8 - - 18 10 - - SSE 1002,1 10 0 0,4
12.12.2017 19:00:00 1,9 0,9 - - 21 11 - - SSE 1003,2 10 0 0,8
12.12.2017 18:00:00 2,1 1,1 - - 18 10 - - SSE 1003,8 10 0 1,4
12.12.2017 17:00:00 1,5 0,4 - - 21 11 - - SSE 1004,4 10 0 0,0
12.12.2017 16:00:00 1,4 0,4 - - 21 11 - - SSE 1005,1 10 0 0,0
12.12.2017 15:00:00 1,7 0,7 - - 16 9 - - SSE 1005,4 10 0 0,0
12.12.2017 14:00:00 0,8 -0,5 - - 5 3 - - - 1006,1 10 6 0,0
12.12.2017 13:00:00 -0,1 -1,4 - - 9 5 - - SSE 1006,6 10 30 0,0
12.12.2017 12:00:00 -1,6 -2,3 - - 4 2 - - - 1006,7 10 0 0,0
12.12.2017 11:00:00 -2,6 -3,2 - - 8 4 - - SSE 1006,8 10 36 0,0
12.12.2017 10:00:00 -4,0 -4,5 - - 4 2 - - - 1007,1 10 18 0,0
12.12.2017 09:00:00 -6,1 -6,6 5,0 8,7 4 2 - - - 1006,8 10 12 0,0
12.12.2017 08:00:00 -6,6 -7,2 - - 8 4 - - SSE 1006,7 10 0 0,0
12.12.2017 07:00:00 -6,5 -7,2 - - 4 2 - - - 1005,8 10 0 0,0
12.12.2017 06:00:00 -6,9 -7,8 - - 5 3 - - E 1005,5 13 0 0,0
12.12.2017 05:00:00 -6,7 -7,4 - - 5 3 - - SSE 1004,7 14 0 0,0
12.12.2017 04:00:00 -6,3 -6,8 - - 5 3 - - SSW 1004,2 12 0 0,0
12.12.2017 03:00:00 -5,8 -6,4 - - 5 3 - - SSE 1004,0 11 0 0,0
12.12.2017 02:00:00 -5,1 -5,5 - - 4 2 - - S 1003,2 8 0 0,0
12.12.2017 01:00:00 -4,9 -5,4 - - 4 2 - - W 1001,9 14 0 0,0
12.12.2017 00:00:00 -4,2 -4,7 - - 4 2 - - SSE 1000,9 8 - 0,0
11.12.2017 23:00:00 -2,9 -3,9 - - 2 1 - - N 999,8 9 0 0,0
11.12.2017 22:00:00 -1,4 -3,2 - - 2 1 - - W 999,3 24 0 0,0
11.12.2017 21:00:00 0,5 -1,9 - - 9 5 - - WNW 998,8 10 0 0,0
11.12.2017 20:00:00 0,3 -2,6 - - 9 5 - - N 997,6 10 0 0,0
11.12.2017 19:00:00 1,0 -1,1 - - 8 4 - - NNW 995,7 10 0 0,0
11.12.2017 18:00:00 0,2 -1,7 - - 8 4 - - N 994,4 10 0 0,0
11.12.2017 17:00:00 1,8 -0,7 - - 11 6 - - N 993,6 10 0 0,2
11.12.2017 16:00:00 1,4 -0,5 - - 8 4 - - NNE 992,7 10 0 0,4
11.12.2017 15:00:00 1,8 -0,9 - - 2 1 - - - 991,8 10 18 0,6
11.12.2017 14:00:00 3,2 -1,5 - - 2 1 - - - 991,2 10 60 1,6
11.12.2017 13:00:00 2,1 -1,7 - - 5 3 - - NW 990,7 10 60 1,6
11.12.2017 12:00:00 1,4 -1,8 - - 8 4 - - NNW 990,5 10 60 0,0
11.12.2017 11:00:00 0,3 -2,3 - - 13 7 - - NW 990,2 10 60 0,0
11.12.2017 10:00:00 -0,8 -3,4 - - 13 7 - - NW 989,5 10 30 0,0
11.12.2017 09:00:00 -1,6 -4,1 5,2 8,9 11 6 - - NW 988,8 10 0 0,0
11.12.2017 08:00:00 -0,9 -3,6 - - 15 8 - - NW 988,1 10 0 0,0
11.12.2017 07:00:00 -1,4 -3,7 - - 15 8 - - NW 987,2 10 0 0,0
11.12.2017 06:00:00 -1,8 -3,7 - - 0 0 - - N 986,0 40 0 0,0
11.12.2017 05:00:00 -1,9 -3,9 - - 0 0 - - N 985,9 35 0 0,0
11.12.2017 04:00:00 -1,6 -3,6 - - 0 0 - - N 985,8 35 0 0,0
11.12.2017 03:00:00 -1,8 -3,8 - - 0 0 - - N 986,0 35 0 0,0
11.12.2017 02:00:00 -1,2 -3,0 - - 0 0 - - N 985,3 50 0 0,0
11.12.2017 01:00:00 -0,2 -2,4 - - 0 0 - - N 984,9 35 0 0,0
11.12.2017 00:00:00 0,1 -1,7 - - 0 0 - - N 984,2 25 - 0,0
10.12.2017 23:00:00 0,2 -0,7 - - 0 0 - - N 983,9 17 0 0,0
10.12.2017 22:00:00 0,2 -0,8 - - 0 0 - - N 983,4 22 0 0,0
10.12.2017 21:00:00 0,1 -0,7 - - 0 0 - - N 982,7 20 0 0,0
10.12.2017 20:00:00 0,3 -0,2 - - 8 4 - - NW 982,4 4,9 0 0,2
10.12.2017 19:00:00 0,4 0,1 - - 11 6 - - NE 981,9 4,9 0 0,6
10.12.2017 18:00:00 0,2 0,1 - - 5 3 - - NNW 981,3 2,5 0 0,0
10.12.2017 17:00:00 0,3 0,1 - - 9 5 - - NNW 980,9 1,1 0 0,0
10.12.2017 16:00:00 0,4 0,1 - - 13 7 - - NW 980,5 1,2 0 0,0
10.12.2017 15:00:00 0,4 0,0 - - 13 7 - - NW 980,0 3,0 0 0,0
10.12.2017 14:00:00 0,3 0,1 - - 13 7 - - NW 979,7 4,0 0 0,0
10.12.2017 13:00:00 0,2 0,0 - - 13 7 - - NW 979,5 4,0 0 0,0
10.12.2017 12:00:00 0,1 -0,1 - - 9 5 - - NNW 979,5 4,0 0 0,0
10.12.2017 11:00:00 0,0 -0,3 - - 9 5 - - N 979,7 4,0 0 0,0
10.12.2017 10:00:00 -0,2 -0,4 - - 11 6 - - NNE 979,9 4,0 0 0,0
10.12.2017 09:00:00 -0,3 -0,4 5,7 9,0 13 7 - - NE 980,8 1,2 0 0,0
10.12.2017 08:00:00 -0,4 -0,5 - - 5 3 - - NNE 982,1 1,0 0 0,0
10.12.2017 07:00:00 -0,6 -0,9 - - 5 3 - - E 983,5 0,8 0 0,0
10.12.2017 06:00:00 -0,4 -1,4 - - 9 5 - - SSE 985,3 6 0 0,0
10.12.2017 05:00:00 -0,8 -1,7 - - 4 2 - - SSE 987,7 28 0 0,0
10.12.2017 04:00:00 -0,6 -1,6 - - 9 5 - - SSE 990,6 24 0 0,0
10.12.2017 03:00:00 -1,0 -1,8 - - 11 6 - - SSE 993,8 28 0 0,0
10.12.2017 02:00:00 -1,0 -1,6 - - 9 5 - - S 995,7 26 0 0,0
10.12.2017 01:00:00 -0,7 -1,3 - - 5 3 - - SSE 998,0 14 0 0,0
10.12.2017 00:00:00 0,6 0,0 - - 2 1 - - NNW 1000,2 16 - 0,0
09.12.2017 23:00:00 0,8 0,2 - - 8 4 - - NNE 1002,2 15 0 0,0
09.12.2017 22:00:00 0,7 0,1 - - 8 4 - - SSE 1004,0 13 0 0,0
09.12.2017 21:00:00 0,7 0,3 - - 5 3 - - ESE 1005,2 12 0 0,0
09.12.2017 20:00:00 0,7 0,2 - - 9 5 - - SSE 1006,8 11 0 0,0
09.12.2017 19:00:00 1,0 0,5 - - 8 4 - - SSE 1008,1 10 0 0,0
09.12.2017 18:00:00 1,1 0,5 - - 5 3 - - ESE 1008,9 10 0 0,0
09.12.2017 17:00:00 1,7 0,9 - - 5 3 - - - 1009,6 10 0 0,0
09.12.2017 16:00:00 2,0 1,1 - - 4 2 - - - 1010,6 10 0 0,0
09.12.2017 15:00:00 2,2 1,3 - - 9 5 - - S 1011,5 10 6 0,0
09.12.2017 14:00:00 2,4 1,5 - - 4 2 - - - 1013,0 10 0 0,4
09.12.2017 13:00:00 1,9 1,1 - - 8 4 - - N 1014,4 10 0 0,8
09.12.2017 12:00:00 2,3 0,4 - - 11 6 - - W 1015,2 10 0 1,0
09.12.2017 11:00:00 1,9 0,7 - - 5 3 - - - 1015,9 10 0 2,2
09.12.2017 10:00:00 1,6 0,6 - - 8 4 - - - 1016,5 6 0 0,8
09.12.2017 09:00:00 0,8 0,0 6,2 9,2 9 5 - - SW 1017,1 10 0 0,8
09.12.2017 08:00:00 1,8 0,3 - - 9 5 - - WSW 1017,2 18 0 0,8
09.12.2017 07:00:00 1,4 0,4 - - 9 5 - - WSW 1017,6 23 0 0,2
09.12.2017 06:00:00 1,9 0,2 - - 13 7 - - W 1018,2 17 0 0,2
09.12.2017 05:00:00 2,7 -0,4 - - 15 8 - - W 1018,3 30 0 0,0
09.12.2017 04:00:00 1,5 -0,6 - - 9 5 - - WSW 1018,3 40 0 0,0
09.12.2017 03:00:00 2,0 -0,8 - - 8 4 - - W 1019,2 45 0 0,2
09.12.2017 02:00:00 2,6 -1,1 - - 11 6 - - WNW 1019,4 40 0 0,0
09.12.2017 01:00:00 3,0 -0,2 - - 18 10 - - W 1019,1 35 0 0,0
09.12.2017 00:00:00 3,0 -0,4 - - 21 11 - - W 1019,4 35 - 0,0
08.12.2017 23:00:00 2,8 -0,5 - - 15 8 46 25 WNW 1019,1 30 0 0,0
08.12.2017 22:00:00 2,4 -0,2 - - 21 11 - - WNW 1019,3 35 0 0,0
08.12.2017 21:00:00 2,6 -0,3 - - 11 6 - - WNW 1019,0 10 0 0,0
08.12.2017 20:00:00 2,6 0,1 - - 13 7 - - WNW 1018,7 10 0 0,4
08.12.2017 19:00:00 2,3 -0,9 - - 15 8 - - WNW 1018,6 10 0 0,4
08.12.2017 18:00:00 1,6 -0,7 - - 16 9 50 27 WNW 1018,4 10 0 0,2
08.12.2017 17:00:00 2,0 0,3 - - 18 10 61 33 WNW 1018,3 10 0 0,2
08.12.2017 16:00:00 1,9 -1,1 - - 16 9 - - W 1017,5 10 0 0,0
08.12.2017 15:00:00 2,1 0,0 - - 16 9 - - NW 1017,5 10 6 0,2
08.12.2017 14:00:00 2,2 -0,2 - - 21 11 46 25 NW 1017,3 10 0 0,0
08.12.2017 13:00:00 2,1 -0,3 - - 24 13 - - NW 1017,3 10 0 0,4
08.12.2017 12:00:00 1,2 -0,5 - - 21 11 57 31 NW 1017,4 10 0 0,6
08.12.2017 11:00:00 1,0 0,2 - - 13 7 50 27 NW 1017,3 10 6 0,4
08.12.2017 10:00:00 0,9 -0,7 - - 37 20 46 25 NW 1017,0 7 6 0,8
08.12.2017 09:00:00 1,3 0,3 7,5 9,4 13 7 46 25 NW 1016,1 10 0 0,2
08.12.2017 08:00:00 1,2 -0,8 - - 24 13 50 27 NW 1015,0 10 0 1,0
08.12.2017 07:00:00 2,1 -0,8 - - 29 16 48 26 NW 1014,3 10 0 0,6
08.12.2017 06:00:00 2,5 -0,6 - - 21 11 48 26 NW 1013,6 30 0 0,6
08.12.2017 05:00:00 3,1 0,6 - - 15 8 50 27 WNW 1013,2 40 0 0,0
08.12.2017 04:00:00 3,3 0,8 - - 31 17 50 27 NW 1012,5 8 0 0,2
08.12.2017 03:00:00 4,5 0,6 - - 22 12 - - WNW 1011,6 25 0 0,0
08.12.2017 02:00:00 2,9 1,5 - - 16 9 48 26 W 1011,0 35 0 0,4
08.12.2017 01:00:00 3,4 0,8 - - 24 13 54 29 W 1009,7 30 0 1,0
08.12.2017 00:00:00 3,8 -0,8 - - 26 14 57 31 W 1010,2 11 - 0,0
07.12.2017 23:00:00 4,3 -1,0 - - 26 14 48 26 W 1010,3 23 0 0,0
07.12.2017 22:00:00 4,4 -1,7 - - 22 12 48 26 W 1010,4 28 0 0,2
07.12.2017 21:00:00 4,8 -1,4 - - 21 11 - - W 1010,8 10 0 0,0
07.12.2017 20:00:00 4,8 -1,0 - - 18 10 - - W 1010,7 10 0 0,0
07.12.2017 19:00:00 5,0 0,5 - - 16 9 46 25 WNW 1010,4 10 0 0,4
07.12.2017 18:00:00 4,4 1,6 - - 18 10 61 33 W 1009,6 10 0 1,4
07.12.2017 17:00:00 6,1 2,4 - - 21 11 - - WNW 1008,8 10 0 0,4
07.12.2017 16:00:00 7,1 2,4 - - 24 13 50 27 WNW 1008,5 10 0 0,0
07.12.2017 15:00:00 7,9 2,4 - - 26 14 48 26 WNW 1007,9 10 0 0,0
07.12.2017 14:00:00 8,4 2,8 - - 18 10 - - WNW 1007,9 10 0 0,0
07.12.2017 13:00:00 8,5 2,9 - - 18 10 46 25 WNW 1007,7 10 0 0,0

tt = temperature
td = dewpoint
tt -20cm = temperature -20cm
tt -100cm = temperature -100cm
ff = wind speed
fx = gusts
dd = wind direction
ppp = reduced air pressure
vv = visibility
sd = sunshine duration
rr = precipitation

Next stations